Theta_e
289 288 288 287 286 286 286 287 288 288 288 287 287 287 287 286 286 285 285 285 285 285 284 284 283 283 283 282 282 282 281 280 280 280 279 279 279 279 279 278 278 278 278 278 277 278 278 278 277 278 277 277 277 277 277 278 278 278 277 278 278 279
289 289 288 287 287 286 286 286 287 287 287 286 286 286 285 285 285 285 284 284 284 284 283 283 283 283 282 282 281 281 280 280 279 279 279 279 279 278 278 278 277 277 277 277 277 277 277 277 277 277 276 276 276 276 276 276 276 276 276 277 277 278
288 287 287 286 285 285 285 286 287 287 287 286 286 286 285 285 285 284 284 284 283 283 283 282 282 282 281 281 281 280 280 279 280 279 279 279 278 278 278 277 277 277 277 277 277 276 276 276 276 276 276 275 275 275 275 275 275 275 275 275 275 276
286 285 284 284 284 285 285 286 286 286 286 286 286 286 285 285 284 284 284 283 283 282 282 282 281 281 281 280 280 279 279 279 279 279 279 278 278 278 277 277 277 277 276 276 276 276 275 275 275 275 275 275 274 274 275 274 274 273 273 273 273 273
288 288 288 287 286 286 285 284 285 286 286 285 286 285 285 285 284 284 283 283 282 282 282 281 280 280 280 279 279 279 279 279 279 279 278 278 278 277 277 277 277 276 276 275 275 275 275 275 275 275 274 274 274 273 273 273 272 272 271 271 271 271
287 286 286 286 286 285 285 285 286 285 285 285 285 285 284 284 284 284 283 282 282 281 281 280 280 279 279 279 279 278 278 279 279 279 278 278 277 277 277 276 276 276 275 275 275 275 274 274 274 274 273 273 272 272 272 271 271 271 271 270 270 271
286 287 287 287 286 286 285 285 285 285 285 285 285 285 284 284 283 283 283 282 281 281 280 280 279 279 279 279 278 278 278 278 278 278 277 277 277 277 276 276 276 275 275 275 274 274 274 273 273 273 272 272 271 271 271 270 270 270 270 270 270 271
288 287 286 286 286 286 286 285 285 285 285 285 285 284 283 283 283 283 282 282 281 280 280 279 279 279 278 278 278 278 278 278 278 277 277 277 276 276 276 276 275 275 274 274 273 273 272 272 272 271 271 270 270 270 270 270 270 269 269 270 270 270
286 287 286 287 286 285 285 285 285 285 285 284 284 284 284 283 283 282 282 281 281 280 280 279 279 279 278 278 278 278 278 277 277 277 276 276 276 275 274 274 274 273 273 272 272 271 271 271 270 270 270 270 270 270 270 269 269 269 269 270 270 270
287 286 286 286 285 285 284 284 285 285 284 284 284 284 284 283 282 282 281 281 280 280 280 279 279 278 278 278 278 278 277 277 276 276 275 275 274 273 273 272 272 271 271 271 270 270 270 270 270 269 269 270 270 270 269 269 269 269 269 270 270 271
287 287 287 286 285 284 285 284 284 284 284 284 284 284 283 283 282 281 281 280 280 280 280 279 279 278 278 278 277 277 276 276 275 274 274 273 272 272 271 271 271 270 271 271 270 270 271 270 270 270 270 269 269 269 268 269 269 269 270 270 270 271
288 288 287 286 286 285 285 285 284 284 284 283 283 283 283 282 281 281 280 280 280 280 279 279 278 278 278 277 276 275 275 274 273 272 271 271 270 270 271 270 270 270 270 270 270 270 270 270 270 271 273 273 269 269 270 270 270 270 270 270 270 271
290 289 288 287 286 286 286 285 284 284 283 283 283 283 282 281 281 280 280 280 279 279 278 278 277 277 276 276 275 274 273 272 271 270 269 269 269 269 269 269 269 269 270 270 269 270 270 270 270 273 275 275 276 273 272 271 271 271 271 271 271 271
290 290 289 289 288 287 286 285 284 283 283 283 282 282 281 281 280 280 279 279 278 278 277 277 276 275 275 274 273 272 271 270 269 269 268 268 268 268 268 268 269 269 269 269 269 270 270 270 272 274 275 275 276 276 273 273 272 272 272 272 271 271
292 292 290 290 289 287 286 286 284 283 283 283 282 281 280 280 280 279 279 278 277 277 276 276 275 274 273 272 271 270 270 269 269 268 267 267 268 268 268 268 268 268 269 269 269 269 270 270 272 274 275 275 276 276 275 273 273 272 272 272 272 272
292 292 291 291 290 288 287 286 285 284 284 283 281 280 280 279 279 278 278 277 277 276 275 274 274 273 272 270 269 269 268 268 267 267 268 268 268 268 268 268 268 269 269 269 269 269 269 269 271 274 275 275 275 276 276 274 273 273 273 272 272 271
293 292 289 288 289 287 285 284 283 282 282 282 280 280 280 279 279 278 277 276 275 275 274 273 272 271 270 269 268 267 267 267 267 267 267 267 268 267 267 267 268 268 269 269 269 269 269 269 272 273 274 275 275 276 276 274 273 272 272 271 272 272
293 291 290 287 285 284 285 284 283 282 281 281 280 279 279 278 277 277 276 275 274 274 273 272 270 269 268 267 267 267 267 266 267 267 267 267 267 268 268 268 268 268 268 268 268 267 267 268 271 273 274 274 275 276 274 273 272 271 271 271 272 272
290 291 286 284 285 284 284 283 282 282 279 278 278 278 278 277 277 276 275 275 274 273 273 271 269 268 267 267 267 266 266 266 266 267 267 267 267 267 267 267 268 268 267 267 267 267 267 267 269 272 273 273 275 275 273 272 272 272 271 271 272 272
287 285 286 284 284 284 283 282 282 280 279 278 277 277 277 276 276 276 275 274 274 273 271 270 269 268 267 266 266 266 266 266 267 267 267 267 267 266 267 267 267 267 267 267 266 267 266 266 268 271 272 274 274 274 273 272 271 271 271 272 272 273
286 285 284 283 283 282 282 281 280 279 278 277 276 277 276 276 276 275 274 273 273 272 271 269 269 268 267 266 266 267 266 266 266 267 267 267 267 267 267 267 266 266 267 267 267 268 267 266 268 271 272 273 274 274 273 272 271 271 271 272 272 273
285 283 284 284 283 282 281 281 280 278 277 276 276 276 276 276 276 275 274 273 272 272 271 270 269 268 267 267 266 266 266 266 266 266 266 266 266 266 266 266 266 265 265 266 266 266 267 267 267 269 272 273 274 274 273 272 271 270 271 272 272 272
287 286 285 284 282 281 280 280 279 278 276 276 275 275 276 276 275 274 272 272 271 270 270 269 269 268 267 267 266 266 266 266 266 265 265 265 265 265 265 265 265 265 264 265 266 266 267 268 267 268 272 273 273 274 274 272 272 272 272 272 272 272
283 282 281 281 280 280 279 279 278 277 276 275 275 276 276 275 274 272 271 270 270 269 268 268 268 267 266 265 265 265 265 265 265 265 264 265 265 265 264 264 264 264 264 265 267 267 267 269 270 269 271 272 273 273 275 273 273 274 273 272 271 271
282 282 280 279 279 279 279 279 278 276 275 275 275 275 274 274 272 271 270 269 268 267 267 266 266 265 264 264 265 265 264 264 264 264 264 264 264 263 263 263 263 264 265 266 266 267 268 269 269 270 269 271 272 273 274 275 275 276 274 272 270 270
282 281 278 277 277 278 278 278 278 276 275 276 275 274 273 272 271 269 268 267 267 266 265 265 264 264 263 264 264 264 263 263 263 263 263 264 263 262 262 263 264 264 264 264 266 267 268 268 268 269 270 270 272 273 275 275 275 275 273 272 270 270
281 279 276 276 276 277 277 278 278 277 275 276 274 273 271 270 269 268 267 266 265 264 264 263 263 263 263 264 264 263 262 262 262 262 263 263 263 263 263 264 265 264 264 265 266 266 267 268 268 268 269 271 272 273 274 274 274 274 274 271 270 270
278 277 277 274 274 275 276 277 278 277 277 274 273 272 271 270 269 267 266 265 264 263 262 262 262 263 263 264 264 264 263 262 263 263 263 263 264 264 264 265 264 264 265 265 266 266 266 267 267 268 269 270 271 272 273 273 273 273 273 272 271 272
278 278 278 277 274 275 275 275 276 276 274 273 273 272 270 269 268 267 265 264 263 262 262 262 261 261 262 263 264 264 263 264 264 264 263 263 264 264 264 265 265 265 265 265 265 266 266 266 267 267 268 269 270 271 272 272 271 272 272 270 269 271
279 279 278 278 277 275 275 275 275 274 272 272 272 270 269 268 267 266 264 263 262 262 262 262 263 262 262 263 263 263 263 264 265 264 263 264 264 264 264 264 265 265 265 265 265 265 265 266 266 267 268 269 271 271 271 271 271 270 269 269 270 268
279 279 278 279 277 274 274 274 274 272 271 271 270 269 268 267 266 265 264 263 262 262 262 262 262 262 262 262 263 263 264 264 264 265 265 266 266 266 265 265 266 266 266 266 266 265 265 265 266 267 272 272 272 272 271 270 270 270 269 271 272 266
279 279 278 279 276 274 274 273 273 271 271 270 269 269 268 267 265 264 263 263 262 262 262 261 261 262 262 262 262 262 263 267 268 267 265 265 269 270 271 270 267 267 267 266 267 267 265 266 267 272 272 272 272 273 273 272 272 272 271 271 270 266
279 278 278 279 276 274 274 273 273 270 269 269 269 268 268 266 265 264 263 263 262 262 262 262 261 262 262 263 262 262 262 264 267 270 269 269 270 271 272 272 272 272 271 268 266 269 272 271 272 272 272 272 272 272 272 271 271 271 271 270 265 259
277 278 278 279 277 275 273 273 272 269 269 268 268 268 268 266 265 264 263 263 263 263 262 262 262 262 262 262 262 262 262 263 263 266 270 271 272 272 273 273 273 273 272 272 270 268 268 271 272 272 271 271 271 271 271 270 270 270 270 269 266 257
281 280 279 279 276 274 272 272 271 269 268 268 268 268 267 266 266 265 264 263 263 262 263 262 262 262 262 261 262 262 263 263 264 264 265 269 272 273 273 272 272 273 272 272 272 272 271 271 271 271 271 271 270 270 270 269 269 269 269 266 259 255
283 282 280 278 275 273 272 271 271 268 268 268 268 268 267 267 266 265 264 263 263 262 262 262 262 262 262 262 263 263 263 263 264 265 265 264 265 268 270 272 272 272 272 272 272 272 271 271 271 271 270 270 270 269 268 267 264 267 267 264 256 256
283 281 280 278 274 272 271 272 271 269 268 267 267 267 267 267 266 265 265 266 265 263 263 263 263 263 262 263 263 263 263 263 264 264 264 263 264 264 263 262 263 268 270 268 269 271 271 271 270 270 269 269 268 267 266 263 257 256 256 257 256 256
281 281 279 276 274 272 271 271 270 267 266 266 267 267 267 266 266 265 264 264 264 264 263 263 262 263 263 263 263 264 263 263 263 263 262 262 263 263 260 259 259 259 267 269 269 270 270 270 270 269 268 267 267 265 263 254 253 253 254 254 254 255
Wind_Speed
12 14 15 12 10 9 10 11 11 11 11 12 13 16 15 14 12 12 11 12 12 12 14 15 13 12 12 11 11 11 12 12 11 11 10 9 9 9 9 8 8 7 6 6 5 5 6 5 5 4 4 4 4 4 5 4 4 5 5 6 6 7
13 15 15 15 16 15 13 12 10 11 12 12 12 10 9 11 13 14 14 14 12 12 11 12 12 12 12 12 13 12 12 12 12 11 11 11 9 9 9 8 8 7 7 6 7 6 6 5 4 4 4 3 4 4 4 4 4 5 6 6 6 5
10 9 9 9 7 7 9 12 15 14 12 13 14 17 17 17 16 14 14 13 13 13 15 15 14 14 12 12 12 12 12 11 11 10 9 9 9 9 9 8 8 7 8 7 7 7 6 5 5 4 4 4 4 4 4 4 4 5 6 5 6 5
7 6 4 5 6 8 11 11 10 11 14 14 13 13 14 17 15 16 15 13 12 14 14 13 11 12 11 13 12 12 11 10 10 10 9 10 8 8 8 8 7 7 7 7 6 6 5 5 4 4 3 4 4 5 4 4 4 5 6 5 6 5
12 14 15 15 15 12 11 10 12 13 11 11 12 14 15 15 16 14 12 13 13 14 12 11 12 12 13 14 12 12 12 11 10 9 10 9 8 7 7 8 7 7 7 6 6 5 5 5 4 4 4 4 5 5 4 3 3 4 5 5 6 5
9 8 8 10 10 11 15 14 12 12 13 14 13 15 14 12 13 14 14 14 14 13 13 14 12 13 14 14 12 13 12 11 10 9 9 8 7 8 6 6 7 7 6 6 6 5 5 5 4 4 4 4 4 4 4 4 4 5 5 5 5 5
8 11 12 13 14 12 12 13 15 15 15 13 15 14 12 11 10 12 14 15 16 15 15 15 14 14 14 14 12 14 13 12 11 9 10 9 8 7 7 6 6 6 6 6 6 5 4 4 4 4 4 3 3 3 4 5 5 5 5 5 6 7
12 10 10 10 11 13 13 13 13 12 12 14 13 13 13 13 12 12 12 13 15 15 17 16 15 16 16 14 13 14 13 12 11 11 9 10 10 8 7 7 6 6 6 5 4 4 4 3 4 4 3 3 3 3 4 5 5 5 6 6 8 9
8 11 11 12 12 11 12 12 12 11 13 13 13 14 14 14 14 13 13 14 15 14 16 16 16 15 14 14 13 12 12 12 12 12 11 9 9 9 8 7 6 5 5 4 4 3 3 3 3 3 3 4 4 5 6 5 6 6 6 7 9 10
11 10 12 12 10 10 9 10 12 14 15 16 14 14 14 13 14 14 14 14 14 14 15 15 13 12 12 11 12 12 12 12 11 11 10 9 9 9 8 7 7 4 5 3 3 3 3 3 3 4 5 5 6 6 6 6 6 7 8 9 10 11
10 12 12 12 11 12 14 13 12 12 10 10 12 13 15 14 14 14 14 14 14 14 12 10 10 10 11 11 12 12 12 12 11 11 10 9 8 7 6 6 5 5 4 3 3 3 4 4 5 5 6 6 7 6 6 6 6 8 9 10 12 12
10 12 12 12 13 15 14 13 13 14 14 14 13 13 12 13 15 15 14 15 13 11 10 11 10 11 11 11 12 12 12 12 11 11 10 9 8 7 6 6 5 4 5 5 5 6 6 6 5 9 14 11 6 6 6 7 8 9 10 10 11 12
12 11 11 13 14 16 15 15 14 12 11 11 12 14 13 12 13 13 13 13 11 11 11 12 12 12 12 11 11 11 12 12 11 11 10 9 8 8 7 6 6 5 5 6 6 7 7 6 6 13 13 13 15 10 8 8 8 9 11 11 11 10
11 13 14 15 15 15 13 12 11 12 14 13 13 12 11 12 12 13 13 12 12 13 14 13 13 13 12 12 12 12 12 12 12 11 11 10 10 8 7 7 7 7 6 6 7 7 7 6 10 13 12 13 13 12 8 7 7 8 9 10 11 11
11 12 13 13 14 13 14 14 12 14 14 13 12 11 13 13 13 12 12 12 13 14 14 13 14 13 13 12 12 11 11 12 11 10 10 10 8 8 8 8 8 7 7 7 7 7 7 7 10 12 13 12 12 13 11 7 8 9 10 10 11 12
8 10 10 12 14 16 16 14 16 13 11 11 11 13 13 13 12 13 12 12 13 13 13 14 14 14 12 12 11 11 11 11 8 8 7 8 9 8 8 8 8 7 7 7 7 6 7 7 9 12 12 11 12 12 12 8 8 8 7 9 11 11
8 8 7 8 11 8 7 8 7 9 11 12 13 13 14 13 13 12 11 12 11 11 12 12 12 12 12 9 9 9 8 8 9 10 8 8 9 9 9 9 9 8 7 7 7 6 6 5 10 11 12 11 11 12 12 7 6 6 9 10 11 12
9 8 9 6 5 7 10 12 11 12 12 11 14 12 12 12 12 12 12 12 13 13 14 14 14 14 15 11 9 9 11 9 10 11 9 8 7 7 7 7 7 8 8 7 5 5 6 6 11 11 11 11 10 12 7 5 8 9 8 9 10 11
6 7 5 6 8 9 10 10 11 11 11 11 10 12 11 12 13 14 14 14 15 16 16 17 18 18 17 13 13 12 12 13 12 10 9 10 9 9 9 8 8 7 7 7 7 7 6 5 8 10 10 10 10 9 5 7 6 7 10 10 10 11
2 4 8 7 8 8 8 10 12 12 12 11 11 12 12 13 14 14 15 16 16 17 17 18 19 20 19 14 12 13 12 10 9 10 10 10 12 10 10 8 7 6 6 7 7 7 6 5 8 11 10 10 10 9 6 5 7 8 9 9 10 9
6 7 5 7 7 6 8 10 12 12 12 12 12 12 14 15 15 16 17 16 16 16 16 17 18 19 18 19 12 11 13 12 11 10 8 7 8 8 8 7 6 6 5 5 5 8 7 5 8 11 9 9 10 8 5 6 6 8 9 9 9 9
7 5 7 9 9 8 10 10 11 11 12 12 11 13 15 17 16 14 12 13 15 15 15 15 17 17 18 17 11 8 10 10 9 10 10 8 7 7 7 7 6 6 4 4 4 4 6 7 6 6 9 9 10 11 7 5 7 8 10 10 9 8
8 10 10 7 8 9 9 10 11 11 11 12 13 17 16 12 11 12 13 13 14 14 15 13 15 16 14 16 16 10 9 9 11 10 9 10 9 8 8 8 6 5 4 4 5 6 7 7 6 7 9 9 9 11 10 6 8 8 9 7 7 8
2 2 2 4 9 10 11 11 12 11 12 12 17 16 10 11 12 13 14 15 15 14 14 15 12 13 13 12 12 10 10 8 8 9 8 7 9 10 7 7 5 4 4 4 5 5 6 7 7 2 5 8 9 10 13 8 7 9 8 8 7 9
3 5 6 5 8 9 10 11 12 12 12 16 16 11 12 13 13 14 14 15 15 14 14 13 15 12 11 13 11 10 12 9 9 9 8 11 9 9 8 7 6 5 5 4 4 5 5 4 3 5 4 7 8 10 11 13 11 15 8 6 7 8
4 3 3 4 6 8 10 14 13 12 14 17 9 11 12 13 14 14 15 14 14 14 13 14 13 12 11 13 12 7 11 10 9 8 6 7 8 8 7 6 6 6 5 5 5 5 4 3 3 4 5 5 8 10 11 12 14 14 8 7 7 10
4 1 3 4 6 6 8 9 13 12 16 10 11 13 14 14 15 16 15 15 15 14 13 13 12 13 13 12 13 11 10 11 9 9 7 8 8 7 7 7 7 6 6 6 5 4 4 4 3 3 4 6 7 9 10 12 13 12 14 8 4 9
2 4 6 5 6 7 7 9 9 14 12 8 10 12 14 16 16 16 16 15 14 14 15 15 13 12 12 14 7 7 10 12 9 8 9 7 8 8 8 7 7 6 6 6 5 5 5 4 3 3 4 6 7 6 9 11 11 12 13 11 10 16
5 7 8 9 8 9 9 10 10 7 6 11 11 12 13 15 16 15 15 16 14 14 16 17 14 12 12 11 8 7 7 8 8 9 9 7 9 9 8 8 7 7 7 6 6 5 5 4 3 4 5 5 5 5 5 5 6 9 9 7 9 8
8 9 8 11 10 10 10 10 11 8 9 11 13 13 14 15 16 17 17 17 15 14 15 15 14 15 9 7 8 10 8 7 9 9 10 11 11 11 9 9 8 8 8 7 6 5 5 4 4 5 5 5 4 4 4 4 3 3 4 6 5 4
9 10 10 12 8 10 11 12 10 9 13 13 14 16 17 16 14 13 15 15 14 14 13 13 14 13 12 9 5 4 7 9 11 10 8 6 6 8 9 9 8 7 6 6 6 6 5 5 5 6 5 2 3 3 2 2 2 2 3 7 11 6
10 10 11 11 8 11 12 13 11 10 12 14 15 17 18 16 15 14 15 14 14 13 14 12 12 13 11 10 12 12 9 8 12 9 9 9 12 14 12 11 7 7 6 6 5 5 5 5 6 5 1 2 3 5 7 7 7 7 6 9 11 7
9 10 11 11 9 11 12 12 12 12 13 15 16 18 18 17 16 14 14 14 14 16 16 14 14 13 15 16 17 17 14 11 9 13 15 15 15 14 15 13 13 14 13 7 3 5 11 9 4 2 2 3 4 6 6 6 6 7 8 10 6 5
8 10 14 11 9 12 11 12 12 14 14 15 16 17 17 19 18 17 17 16 14 15 16 14 15 13 9 9 7 9 11 14 15 10 13 16 15 14 14 14 14 14 13 14 10 5 3 4 5 4 4 4 6 6 6 5 6 8 9 12 9 3
11 10 10 10 10 10 11 13 13 13 15 16 17 18 19 20 19 17 16 15 15 16 15 14 13 10 11 11 12 12 13 12 13 17 13 11 14 14 13 14 13 13 13 13 12 11 8 6 6 6 5 6 6 7 7 6 7 9 11 9 6 4
10 10 11 10 11 13 12 14 14 15 17 17 18 19 20 21 20 19 18 18 19 18 17 15 10 11 10 10 13 14 12 12 13 13 15 15 11 10 11 12 14 14 13 12 10 8 8 8 7 7 6 6 7 7 8 7 5 8 10 8 4 5
11 10 11 12 10 11 12 15 14 14 14 16 17 18 17 17 17 14 16 21 18 17 16 14 12 13 14 14 14 13 13 12 11 12 13 13 13 13 12 8 5 7 10 5 5 8 9 8 8 8 7 7 7 7 6 6 5 6 6 8 5 5
12 12 11 9 9 10 12 13 9 11 14 16 17 18 18 17 17 15 14 16 19 16 9 15 16 17 18 14 13 12 12 12 12 12 10 9 9 10 9 7 5 2 5 11 6 9 8 9 9 8 8 8 9 8 6 6 5 4 5 5 5 5
Wind_Direction
191 192 194 191 189 187 191 194 190 192 195 194 192 196 196 190 186 183 184 187 189 188 187 182 179 177 173 168 163 161 161 160 159 158 158 150 152 150 151 152 155 155 159 160 174 178 186 185 191 195 202 207 217 229 233 239 236 241 247 244 247 252
195 190 186 184 186 184 183 185 184 193 193 188 193 191 181 180 187 186 187 190 186 187 182 184 180 176 172 169 164 166 167 165 160 157 157 162 154 155 151 154 157 159 165 170 172 177 178 182 190 192 200 209 219 220 235 239 236 246 247 252 252 256
208 203 195 188 173 174 173 179 188 190 185 191 189 188 186 187 189 184 191 182 189 182 187 183 178 177 170 167 169 165 166 164 162 163 158 146 157 152 154 157 160 161 164 165 170 176 179 182 194 191 194 207 220 226 227 233 240 250 254 259 263 263
203 194 178 166 166 178 183 187 180 185 192 194 191 191 192 190 185 189 187 186 185 187 186 182 177 173 170 167 167 166 164 163 162 157 150 155 154 152 154 155 157 160 161 164 173 176 181 187 189 195 193 214 222 234 227 235 243 250 260 259 265 269
189 188 183 184 186 185 182 181 189 193 191 187 196 196 201 193 189 182 181 183 183 187 181 175 179 176 173 169 168 166 163 160 156 154 152 151 150 148 151 156 156 159 159 164 173 179 185 187 192 195 198 211 220 229 236 236 239 250 258 261 264 270
186 174 181 184 182 183 191 192 189 187 187 190 188 199 199 195 190 184 179 180 182 178 176 181 178 176 176 174 171 165 162 157 154 149 146 144 142 147 147 148 155 156 164 169 178 183 186 187 189 198 206 215 220 233 246 246 249 254 254 256 261 265
177 192 193 189 192 193 189 188 190 189 191 186 192 196 187 190 192 191 186 181 179 178 179 180 178 180 179 176 170 165 158 156 149 147 145 142 145 147 146 151 156 162 167 178 181 185 185 190 195 201 211 216 217 226 236 240 246 252 254 256 258 262
197 195 195 199 198 194 195 196 193 191 188 193 189 182 180 187 185 195 191 186 181 183 181 180 180 183 181 174 169 164 159 152 149 146 145 147 146 146 153 158 168 170 173 172 176 175 184 186 188 198 205 211 219 226 230 237 243 247 249 250 256 253
203 202 200 202 202 195 193 191 192 191 191 190 188 185 180 182 182 187 190 189 189 184 185 183 185 180 177 174 167 159 154 151 147 146 147 147 146 151 156 161 158 159 160 164 161 172 179 188 191 200 212 215 219 224 232 238 240 241 243 249 250 249
204 203 206 204 200 196 195 195 193 191 190 191 188 183 180 180 182 185 188 188 190 190 188 186 177 174 172 166 161 157 151 145 144 142 138 139 146 152 155 158 154 143 143 156 152 171 169 193 207 212 212 216 216 222 226 226 232 242 249 250 247 245
206 207 210 206 195 191 197 193 195 197 199 193 185 183 186 177 178 184 186 187 191 191 182 170 168 168 166 163 157 152 150 144 138 134 133 135 134 132 131 131 131 143 133 143 155 180 199 203 217 212 216 213 218 213 222 231 239 245 248 250 250 248
219 216 210 206 198 200 199 196 194 194 190 190 187 183 180 172 183 182 185 188 188 174 166 166 164 166 162 158 157 152 144 140 135 132 130 130 128 124 126 128 127 136 155 173 192 201 214 219 215 224 224 217 199 211 220 228 231 236 243 252 255 256
229 226 217 214 207 206 200 197 194 188 187 187 183 183 179 172 176 182 182 183 173 165 161 163 165 159 161 157 148 145 140 136 133 128 126 127 128 132 130 132 140 153 175 186 200 209 212 218 221 226 228 229 227 219 219 228 242 248 252 248 251 257
225 225 220 217 214 208 201 195 186 180 191 183 182 177 165 172 176 178 179 175 166 165 165 164 159 158 156 151 149 145 138 133 133 132 134 133 134 134 134 143 160 167 178 194 205 213 217 222 228 230 232 233 235 238 240 239 242 245 249 262 267 268
234 228 222 217 214 207 204 192 177 188 187 178 176 155 167 175 176 175 173 170 167 167 165 159 157 155 152 153 146 140 136 135 127 130 134 137 133 134 145 159 164 174 184 195 204 214 221 227 235 238 238 241 243 247 252 254 253 259 256 256 263 270
236 236 228 216 210 205 201 183 187 187 169 160 154 163 171 171 176 173 172 167 168 165 161 158 155 152 148 141 137 130 117 115 120 118 120 128 137 145 151 159 166 174 185 194 205 218 228 233 239 244 244 246 249 253 261 262 256 249 254 274 279 275
233 238 238 224 212 196 155 170 164 142 150 158 162 168 168 174 168 170 166 164 161 156 154 151 149 143 128 123 115 113 115 121 122 130 138 142 148 152 157 164 168 177 177 191 202 213 231 238 244 247 249 251 258 264 271 273 277 288 280 273 271 274
238 227 229 206 152 167 171 173 160 155 164 160 163 164 166 163 165 166 162 162 160 158 157 153 147 143 139 129 131 129 135 135 142 143 143 140 140 146 150 160 162 174 181 186 184 211 235 242 250 254 255 260 266 272 275 275 279 271 269 274 276 279
225 221 178 158 168 162 179 162 156 150 145 155 159 157 160 162 168 171 167 166 164 163 161 157 153 152 147 150 149 150 150 149 147 144 145 144 150 155 162 164 167 172 170 180 189 207 231 239 255 260 261 262 268 276 270 256 253 267 278 280 277 278
168 154 155 162 174 178 156 156 153 149 152 155 155 159 166 171 178 173 171 171 169 166 163 161 158 157 159 160 155 152 149 142 139 145 154 152 156 162 161 159 152 165 172 186 192 203 222 236 253 257 262 265 269 273 269 276 271 266 270 273 271 270
159 152 142 151 168 175 156 154 151 149 159 159 163 168 172 184 180 177 177 173 167 165 163 164 163 161 162 164 155 146 144 149 149 146 140 140 139 142 144 148 153 158 173 185 187 212 227 233 245 260 266 272 274 279 275 271 275 277 278 282 281 280
117 132 155 177 185 156 155 153 155 160 160 166 164 174 188 190 186 175 164 161 164 165 165 168 167 164 162 159 142 130 137 136 132 139 141 141 135 137 139 144 149 156 161 173 185 213 232 238 238 250 265 272 279 287 286 277 281 279 278 280 283 294
165 180 186 179 156 153 154 154 155 170 169 167 175 194 194 180 164 162 160 160 163 166 167 167 170 163 161 154 151 134 127 138 139 137 142 140 141 140 141 146 145 147 166 186 205 206 220 222 230 245 263 278 286 290 294 277 273 275 279 284 300 305
67 79 110 150 154 159 161 162 172 173 171 176 197 197 164 160 162 158 157 163 165 165 164 166 165 159 152 150 137 127 131 130 130 134 129 127 137 137 126 127 139 151 177 194 205 206 216 230 227 211 270 281 288 289 294 291 281 292 298 303 302 307
172 186 173 168 165 164 170 167 175 181 179 195 199 163 161 158 157 158 158 159 163 164 161 160 159 156 151 148 147 123 131 133 129 129 131 136 127 127 132 141 153 164 178 182 197 210 210 202 202 248 263 279 287 291 295 299 301 307 310 306 304 309
233 202 167 168 175 175 173 177 180 186 193 207 161 157 153 155 154 154 157 161 162 157 157 154 153 151 153 149 143 111 124 133 132 128 129 121 126 129 135 147 161 165 169 185 197 192 174 195 174 245 268 271 283 291 298 302 305 308 312 309 312 307
253 199 184 197 191 195 191 192 190 190 206 193 152 158 158 156 155 157 161 163 162 157 151 150 151 153 155 155 146 131 129 129 134 127 135 131 133 134 139 155 159 166 176 180 186 182 177 183 196 216 253 275 283 295 302 305 306 312 313 314 296 297
223 201 213 209 201 201 205 208 197 199 205 141 159 159 159 158 159 162 164 161 159 156 149 146 149 151 152 139 122 124 139 141 144 133 138 137 137 144 148 153 155 169 180 182 181 178 181 186 190 220 239 247 265 282 305 309 315 315 316 315 312 301
215 224 219 222 200 199 204 205 214 202 142 163 156 159 159 162 163 161 162 163 160 156 157 154 154 153 154 150 132 127 123 130 129 131 137 145 146 148 154 155 164 174 177 180 177 176 184 187 193 221 237 238 240 235 255 308 291 309 321 318 281 290
215 226 221 227 210 194 201 204 208 182 154 155 160 157 160 165 171 169 169 165 162 164 164 160 153 152 148 151 147 141 138 137 141 142 152 160 159 155 160 165 173 177 174 175 175 174 178 186 204 230 236 237 229 244 258 279 270 327 327 287 298 13
218 223 221 230 202 185 198 206 199 172 162 162 161 162 165 171 169 165 164 165 163 167 167 159 160 156 148 137 109 82 136 147 152 149 141 137 141 152 154 162 168 168 168 166 172 170 172 187 213 231 238 240 312 322 320 301 319 301 281 319 345 7
214 221 222 228 188 186 200 202 190 176 169 162 165 166 170 168 166 167 171 171 172 166 162 160 160 157 154 140 146 141 128 119 133 137 140 140 153 156 159 161 164 164 159 167 189 165 183 193 225 238 32 359 352 350 355 3 0 351 351 353 1 356
217 224 233 231 198 199 202 195 186 176 172 169 170 173 173 164 168 173 172 174 180 175 167 160 155 158 149 138 134 137 137 136 134 138 138 142 153 160 165 167 172 172 173 174 185 195 189 213 217 105 87 42 17 9 12 20 11 5 8 11 16 355
229 227 235 234 208 207 196 193 188 180 176 173 173 175 173 173 171 175 180 179 173 166 168 162 156 150 140 140 140 135 132 132 127 135 149 153 158 166 172 167 172 173 178 173 169 177 234 190 155 123 79 58 36 28 21 23 15 13 19 20 17 3
240 237 237 233 215 207 196 197 194 179 177 177 177 177 178 180 180 178 173 172 167 168 167 160 159 153 149 141 143 142 140 140 141 139 142 156 164 165 164 162 167 169 169 166 169 167 175 153 133 112 86 61 46 36 30 29 24 26 21 24 16 18
249 243 234 227 215 206 200 203 196 183 183 179 180 182 185 183 184 179 173 172 170 167 170 170 162 150 148 139 145 148 146 147 148 147 144 136 148 163 157 156 161 163 159 159 156 150 138 128 119 100 84 65 51 41 36 38 23 23 24 31 22 357
262 253 240 232 217 207 205 212 204 183 177 178 181 184 186 186 182 177 179 173 168 170 168 165 159 148 138 146 143 145 145 145 147 147 150 156 163 158 146 146 126 141 139 117 131 136 129 121 111 97 78 69 56 44 47 57 34 14 350 8 14 351
272 260 252 231 213 212 213 221 197 169 177 179 181 185 185 184 181 177 174 174 176 171 162 144 143 144 142 143 140 141 142 140 145 148 150 152 153 145 140 136 145 135 155 136 121 131 117 108 103 94 75 72 65 52 54 51 21 15 0 345 326 332